STARLINK-32039

Last updated on Fri Sep 20 2024 00:02:03 GMT+0000 (Coordinated Universal Time)

1 60604U 24150X 24263.58334491 .00022767 00000+0 77889-3 0 9997 2 60604 53.1594 279.9460 0001460 73.8348 235.5169 15.30181745 6019
UTC large
Height (km)
Speed (km/s)
/
Latitude / Longitude
Inclination (degrees)
Orbital Period (minutes)
Azimuth
Elevation
Range (km)
Doppler Factor

Next 0 passes for location: London (51.5072 / 0.1276)

Sorry there are no passes over London.